Lander, WY

9:27 AM MST on February 23, 2018 (GMT -0700)
Hunt

Weather History for KLND - November, 2011

Change the Weather History Date:

Tuesday, November 1, 2011

  Actual Average Record
Temperature  
Mean Temperature 35 °F 39 °F  
Max Temperature 43 °F 52 °F 71 °F (1914)
Min Temperature 26 °F 27 °F -6 °F (1923)
Degree Days  
Heating Degree Days 30 26  
Month to date heating degree days 30 26  
Since 1 July heating degree days 631 887  
Cooling Degree Days 0 0  
Month to date cooling degree days 0 0  
Year to date cooling degree days 576 472  
Moisture  
Dew Point 28 °F    
Average Humidity 77    
Maximum Humidity 100    
Minimum Humidity 53    
Precipitation  
Precipitation 0.55 in 0.03 in 0.70 in (1990)
Month to date precipitation 0.55 0.03  
Year to date precipitation 13.99 11.25  
Snow  
Snow 5.00 in 0.40 in - ()
Month to date snowfall 5.0 0.4  
Since 1 July snowfall 9.0 12.9  
Since 1 September snowfall 9.0 12.9  
Snow Depth 5.00 in    
Sea Level Pressure  
Sea Level Pressure 30.13 in    
Wind  
Wind Speed 6 mph (North)    
Max Wind Speed 13 mph    
Max Gust Speed 22 mph    
Visibility 2 miles    
Events Fog , Snow    
T = Trace of Precipitation, MM = Missing Value Source: NWS Daily Summary

Daily Weather History Graph

Daily Weather History Graph

Search for Another Location

Airport or City:

Trip Planner

Search our weather history database for the weather conditions in past years. The results will help you decide how hot, cold, wet, or windy it might be!

Date:

Astronomy

Nov. 01, 2011 Rise Set
Actual Time 7:48 AM MDT 6:07 PM MDT
Civil Twilight 7:19 AM MDT 6:36 PM MDT
Nautical Twilight 6:45 AM MDT 7:10 PM MDT
Astronomical Twilight 6:13 AM MDT 7:43 PM MDT
Moon 1:38 PM MDT (11/1) 11:52 PM MDT (11/1)
Length of Visible Light 11h 17m
Length of Day
10h 18m
Waxing Crescent, 40% of the Moon is Illuminated
Nov 1
Waxing Crescent
Nov 2
First Quarter
Nov 10
Full
Nov 18
Last Quarter
Nov 24
New

Hourly Weather History & Observations

Time (MDT) Temp. Windchill Dew Point Humidity Pressure Visibility Wind Dir Wind Speed Gust Speed Precip Events Conditions
12:53 AM 43.0 °F - 27.0 °F 53% 29.87 in 10.0 mi Calm Calm - N/A   Mostly Cloudy
1:53 AM 41.0 °F 39.0 °F 32.0 °F 70% 29.89 in 10.0 mi NNW 3.5 mph - N/A   Mostly Cloudy
2:00 AM 42.8 °F - 33.8 °F 70% 29.99 in 10.0 mi Calm Calm - N/A   Mostly Cloudy
2:53 AM 41.0 °F 36.4 °F 33.1 °F 73% 29.92 in 10.0 mi East 6.9 mph - N/A   Overcast
3:53 AM 39.0 °F 34.8 °F 32.0 °F 76% 29.93 in 10.0 mi NNE 5.8 mph - N/A   Overcast
4:53 AM 36.0 °F 32.1 °F 32.0 °F 86% 29.93 in 5.0 mi NNW 4.6 mph - 0.01 in Snow Light Snow
5:23 AM 35.6 °F 31.7 °F 33.8 °F 93% 30.00 in 8.0 mi NW 4.6 mph - 0.01 in   Overcast
5:37 AM 33.8 °F 28.6 °F 33.8 °F 100% 30.01 in 5.0 mi North 5.8 mph - 0.01 in   Overcast
5:53 AM 33.1 °F 26.1 °F 32.0 °F 96% 29.97 in 2.5 mi North 8.1 mph - 0.02 in Snow Light Snow
5:59 AM 33.8 °F 27.7 °F 32.0 °F 93% 30.01 in 1.8 mi NNW 6.9 mph - 0.00 in Snow Light Snow
6:20 AM 32.0 °F 27.5 °F 32.0 °F 100% 30.01 in 0.8 mi North 4.6 mph - 0.03 in Snow Light Snow
6:27 AM 32.0 °F 28.7 °F 32.0 °F 100% 30.01 in 1.0 mi NNW 3.5 mph - 0.03 in Snow Light Snow
6:53 AM 32.0 °F 28.7 °F 30.9 °F 96% 29.99 in 0.8 mi Variable 3.5 mph - 0.06 in Snow Light Snow
7:34 AM 32.0 °F - 32.0 °F 100% 30.02 in 1.0 mi Calm Calm - 0.04 in Snow Light Snow
7:42 AM 32.0 °F - 30.2 °F 93% 30.02 in 0.8 mi Calm Calm - 0.05 in Snow Light Snow
7:53 AM 32.0 °F - 30.0 °F 92% 30.00 in 1.0 mi Calm Calm - 0.06 in Snow Light Snow
8:24 AM 30.2 °F 26.7 °F 30.2 °F 100% 30.03 in 2.5 mi NE 3.5 mph - 0.00 in   Overcast
8:34 AM 30.2 °F 24.3 °F 30.2 °F 100% 30.04 in 1.2 mi NNE 5.8 mph - 0.00 in Snow Light Snow
8:51 AM 30.2 °F 26.7 °F 30.2 °F 100% 30.04 in 0.8 mi East 3.5 mph - 0.00 in Snow Light Snow
8:53 AM 30.9 °F 27.5 °F 30.0 °F 96% 30.03 in 0.8 mi East 3.5 mph - 0.00 in Snow Light Snow
9:19 AM 30.2 °F 23.4 °F 30.2 °F 100% 30.04 in 1.0 mi NNE 6.9 mph - 0.01 in Snow Light Snow
9:34 AM 30.2 °F 24.3 °F 30.2 °F 100% 30.05 in 2.0 mi NE 5.8 mph - 0.01 in   Overcast
9:53 AM 30.9 °F 26.2 °F 30.0 °F 96% 30.04 in 2.5 mi ENE 4.6 mph - 0.01 in   Overcast
10:07 AM 30.2 °F 26.7 °F 28.4 °F 93% 30.05 in 1.8 mi NNE 3.5 mph - 0.01 in   Overcast
10:15 AM 30.2 °F 26.7 °F 28.4 °F 93% 30.05 in 1.8 mi NNE 3.5 mph - 0.01 in   Overcast
10:22 AM 30.2 °F 26.7 °F 28.4 °F 93% 30.05 in 2.0 mi NE 3.5 mph - 0.01 in   Overcast
10:27 AM 30.2 °F 26.7 °F 28.4 °F 93% 30.05 in 3.0 mi NNE 3.5 mph - 0.01 in   Overcast
10:34 AM 30.2 °F - 28.4 °F 93% 30.05 in 1.8 mi Calm Calm - 0.01 in   Overcast
10:53 AM 30.9 °F - 28.9 °F 92% 30.05 in 1.5 mi Calm Calm - 0.01 in   Overcast
11:21 AM 30.2 °F 21.9 °F 28.4 °F 93% 30.05 in 1.0 mi NNE 9.2 mph - 0.01 in   Overcast
11:33 AM 30.2 °F 25.4 °F 28.4 °F 93% 30.06 in 1.2 mi NNE 4.6 mph - 0.01 in Snow Light Snow
11:53 AM 30.0 °F 24.1 °F 28.0 °F 92% 30.07 in 1.2 mi North 5.8 mph - 0.02 in Snow Light Snow
12:27 PM 30.2 °F 22.6 °F 28.4 °F 93% 30.06 in 1.2 mi NNE 8.1 mph - 0.01 in Snow Light Snow
12:41 PM 30.2 °F 22.6 °F 28.4 °F 93% 30.06 in 1.0 mi NNE 8.1 mph - 0.02 in Snow Light Snow
12:53 PM 30.0 °F 22.4 °F 28.0 °F 92% 30.08 in 0.8 mi NNE 8.1 mph - 0.02 in Snow Light Snow
1:11 PM 30.2 °F 26.7 °F 28.4 °F 93% 30.06 in 0.5 mi NNE 3.5 mph - 0.02 in Fog , Snow Snow
1:22 PM 30.2 °F - 28.4 °F 93% 30.06 in 0.2 mi Calm Calm - 0.04 in Fog , Snow Snow
1:53 PM 30.0 °F 23.2 °F 28.0 °F 92% 30.09 in 0.2 mi North 6.9 mph - 0.07 in Fog , Snow Snow
2:18 PM 30.2 °F 22.6 °F 26.6 °F 86% 30.07 in 0.8 mi NE 8.1 mph - 0.01 in Snow Light Snow
2:29 PM 30.2 °F 23.4 °F 28.4 °F 93% 30.07 in 0.5 mi North 6.9 mph - 0.02 in Fog , Snow Snow
2:53 PM 28.9 °F 21.9 °F 28.0 °F 96% 30.12 in 0.5 mi North 6.9 mph - 0.03 in Fog , Snow Snow
3:04 PM 28.4 °F 18.0 °F 26.6 °F 93% 30.09 in 0.2 mi NNE 12.7 mph 17.3 mph 0.02 in Fog , Snow Snow
3:41 PM 28.4 °F 18.0 °F 26.6 °F 93% 30.11 in 0.5 mi NE 12.7 mph - 0.05 in Fog , Snow Snow
3:50 PM 28.4 °F 19.1 °F 26.6 °F 93% 30.12 in 0.5 mi NNE 10.4 mph - 0.05 in Fog , Snow Snow
3:53 PM 28.9 °F 18.6 °F 27.0 °F 92% 30.17 in 0.5 mi NNE 12.7 mph - 0.05 in Fog , Snow Snow
4:03 PM 28.4 °F 18.0 °F 26.6 °F 93% 30.12 in 0.2 mi NNE 12.7 mph 21.9 mph 0.01 in Fog , Snow Snow
4:31 PM 28.4 °F 19.1 °F 28.4 °F 100% 30.14 in 0.2 mi NNE 10.4 mph - 0.03 in Fog , Snow Snow
4:53 PM 28.9 °F 22.8 °F 27.0 °F 92% 30.20 in 0.5 mi NNE 5.8 mph - 0.05 in Fog , Snow Snow
5:12 PM 28.4 °F 23.3 °F 26.6 °F 93% 30.15 in 0.5 mi NNE 4.6 mph - 0.01 in Fog , Snow Snow
5:42 PM 28.4 °F - 26.6 °F 93% 30.17 in 0.5 mi Calm Calm - 0.03 in Fog , Snow Snow
5:53 PM 28.9 °F 23.9 °F 26.1 °F 89% 30.25 in 0.5 mi Variable 4.6 mph - 0.03 in Fog , Snow Snow
6:12 PM 28.4 °F - 26.6 °F 93% 30.19 in 0.8 mi Calm Calm - 0.01 in Snow Light Snow
6:18 PM 28.4 °F - 26.6 °F 93% 30.19 in 1.5 mi Calm Calm - 0.01 in Snow Light Snow
6:27 PM 28.4 °F 24.6 °F 26.6 °F 93% 30.20 in 3.0 mi West 3.5 mph - 0.01 in Snow Light Snow
6:47 PM 28.4 °F 19.7 °F 26.6 °F 93% 30.22 in 1.8 mi North 9.2 mph - 0.01 in Snow Light Snow
6:53 PM 28.0 °F 20.8 °F 26.1 °F 92% 30.30 in 1.2 mi NNW 6.9 mph - 0.01 in Snow Light Snow
7:17 PM 28.4 °F 22.2 °F 26.6 °F 93% 30.23 in 2.0 mi NW 5.8 mph - 0.01 in Snow Light Snow
7:53 PM 28.0 °F 22.8 °F 26.1 °F 92% 30.33 in 2.0 mi WNW 4.6 mph - 0.01 in Snow Light Snow
8:01 PM 28.4 °F 22.2 °F 26.6 °F 93% 30.25 in 1.8 mi WNW 5.8 mph - 0.00 in Snow Light Snow
8:29 PM 28.4 °F 23.3 °F 26.6 °F 93% 30.27 in 0.8 mi WNW 4.6 mph - 0.02 in Snow Light Snow
8:34 PM 28.4 °F 23.3 °F 26.6 °F 93% 30.27 in 1.0 mi NW 4.6 mph - 0.02 in Snow Light Snow
8:53 PM 28.0 °F - 25.0 °F 88% 30.36 in 0.8 mi Calm Calm - 0.03 in Snow Light Snow
9:05 PM 28.4 °F 24.6 °F 26.6 °F 93% 30.28 in 0.5 mi WNW 3.5 mph - 0.01 in Fog , Snow Snow
9:19 PM 28.4 °F 23.3 °F 26.6 °F 93% 30.29 in 1.0 mi NW 4.6 mph - 0.02 in Snow Light Snow
9:30 PM 28.4 °F 19.7 °F 24.8 °F 86% 30.29 in 1.8 mi NW 9.2 mph - 0.02 in Snow Light Snow
9:53 PM 27.0 °F 17.3 °F 26.1 °F 96% 30.39 in 0.5 mi NW 10.4 mph - 0.03 in Fog , Snow Snow
10:07 PM 26.6 °F 17.5 °F 26.6 °F 100% 30.30 in 1.5 mi NW 9.2 mph - 0.00 in Snow Light Snow
10:27 PM 26.6 °F 16.8 °F 26.6 °F 100% 30.31 in 1.0 mi NNW 10.4 mph - 0.01 in Snow Light Snow
10:53 PM 27.0 °F 16.1 °F 25.0 °F 92% 30.41 in 0.8 mi NW 12.7 mph - 0.02 in Snow Light Snow
11:10 PM 26.6 °F 17.5 °F 24.8 °F 93% 30.32 in 1.0 mi NW 9.2 mph - 0.01 in Snow Light Snow
11:24 PM 26.6 °F 17.5 °F 24.8 °F 93% 30.32 in 2.0 mi NW 9.2 mph - 0.01 in Snow Light Snow
11:27 PM 26.6 °F 18.2 °F 24.8 °F 93% 30.33 in 1.8 mi NW 8.1 mph - 0.01 in Snow Light Snow
11:35 PM 26.6 °F 19.1 °F 24.8 °F 93% 30.33 in 2.5 mi NW 6.9 mph - 0.01 in Snow Light Snow
11:42 PM 26.6 °F 20.0 °F 24.8 °F 93% 30.33 in 4.0 mi NW 5.8 mph - 0.01 in   Overcast
11:53 PM 27.0 °F 19.5 °F 24.1 °F 89% 30.43 in 5.0 mi NW 6.9 mph - 0.01 in   Overcast